パンスターズ彗星

C/2017 Y2 ( PanSTARRS )

English version
Home page
Updated on December 9, 2019

---------------------------------------------------------------------

・ プロフィール

発見日 2017年12月24日
発見光度 22.1等
発見者 Pan-STARRS 1 telescope (Haleakala)

・ 写真集

・ 軌道要素

Epoch 2020 Nov. 7.0 TT = JDT 2459160.5
T 2020 Nov. 4.60984 TT                                  Williams
q   4.6320863            (2000.0)            P               Q
z  -0.0002254      Peri.  147.87027     -0.04268410     -0.69707158
 +/-0.0000125      Node    65.99126     -0.99886533     +0.01462960
e   1.0010440      Incl.  128.41626     +0.02112133     -0.71685228
From 212 observations 2017 Dec. 24-2019 Oct. 26, mean residual 0".5.

・ 星図

・ 光度変化

        m1 = 5.5 + 5 logΔ + 12.0 log r

---------------------------------------------------------------------

軌道要素はM.P.E.C. 2019-V116に掲載されたものです。
光度グラフはComet for Windowsで作成したものです。

---------------------------------------------------------------------

Copyright(C) Seiichi Yoshida (comet@aerith.net). All rights reserved.